| time (UTC) | temp F | wind direction | speed MPH | gust MPH | rain 1hr in | rain 24hr in | rain mn in | humidity % | barometer mb |
| 20260508140040 | 84 | 315 | 9.0 | 17.0 | 0.00 | 0.00 | 0.00 | 23 | 994.1 |
| 20260508130042 | 85 | 293 | 7.0 | 16.0 | 0.00 | 0.00 | 0.00 | 24 | 994.3 |
| 20260508123043 | 86 | 293 | 9.0 | 19.0 | 0.00 | 0.00 | 0.00 | 24 | 994.4 |
| 20260508120042 | 86 | 315 | 7.0 | 14.0 | 0.00 | 0.00 | 0.00 | 24 | 994.5 |
| 20260508113042 | 84 | 315 | 5.0 | 15.0 | 0.00 | 0.00 | 0.00 | 25 | 994.7 |
| 20260508110042 | 86 | 293 | 6.0 | 13.0 | 0.00 | 0.00 | 0.00 | 25 | 994.8 |
| 20260508103042 | 85 | 315 | 4.0 | 11.0 | 0.00 | 0.00 | 0.00 | 23 | 994.8 |
| 20260508100045 | 83 | 338 | 5.0 | 15.0 | 0.00 | 0.00 | 0.00 | 24 | 994.9 |
| 20260508093044 | 85 | 338 | 5.0 | 12.0 | 0.00 | 0.00 | 0.00 | 25 | 994.8 |
| 20260508090041 | 85 | 338 | 7.0 | 13.0 | 0.00 | 0.00 | 0.00 | 26 | 995.0 |
| 20260508083413 | 84 | 338 | 8.0 | 14.0 | 0.00 | 0.00 | 0.00 | 26 | 995.2 |
| 20260508080041 | 83 | 338 | 7.0 | 15.0 | 0.00 | 0.00 | 0.00 | 29 | 995.2 |
| 20260508073102 | 82 | 338 | 7.0 | 13.0 | 0.00 | 0.00 | 0.00 | 33 | 995.3 |
| 20260508070041 | 80 | 338 | 8.0 | 13.0 | 0.00 | 0.00 | 0.00 | 36 | 995.2 |
| 20260508063044 | 79 | 338 | 8.0 | 14.0 | 0.00 | 0.00 | 0.00 | 35 | 995.1 |
| 20260508060201 | 77 | 338 | 7.0 | 13.0 | 0.00 | 0.00 | 0.00 | 38 | 994.9 |
| 20260508053041 | 75 | 338 | 5.0 | 13.0 | 0.00 | 0.00 | 0.00 | 36 | 994.8 |
| 20260508050041 | 73 | 315 | 5.0 | 10.0 | 0.00 | 0.00 | 0.00 | 40 | 994.6 |
| 20260508043041 | 69 | 315 | 4.0 | 8.0 | 0.00 | 0.00 | 0.00 | 44 | 994.6 |
| 20260508040433 | 66 | 315 | 4.0 | 11.0 | 0.00 | 0.00 | 0.00 | 48 | 994.6 |
| 20260508033041 | 64 | 293 | 4.0 | 8.0 | 0.00 | 0.00 | 0.00 | 50 | 994.4 |
| 20260508030041 | 62 | 293 | 4.0 | 8.0 | 0.00 | 0.00 | 0.00 | 51 | 994.2 |
| 20260508023041 | 61 | 293 | 4.0 | 7.0 | 0.00 | 0.00 | 0.00 | 49 | 994.2 |
| 20260508020141 | 60 | 293 | 4.0 | 8.0 | 0.00 | 0.00 | 0.00 | 50 | 994.0 |
| 20260508013041 | 60 | 293 | 4.0 | 8.0 | 0.00 | 0.00 | 0.00 | 51 | 993.8 |
| 20260508010041 | 61 | 293 | 4.0 | 8.0 | 0.00 | 0.00 | 0.00 | 51 | 993.8 |
| 20260508003041 | 60 | 293 | 3.0 | 6.0 | 0.00 | 0.00 | 0.00 | 55 | 993.8 |
| 20260508000040 | 61 | 293 | 3.0 | 6.0 | 0.00 | 0.00 | 0.00 | 55 | 993.7 |
| 20260507233040 | 62 | 270 | 2.0 | 6.0 | 0.00 | 0.00 | 0.00 | 54 | 993.6 |
| 20260507230040 | 63 | 270 | 2.0 | 7.0 | 0.00 | 0.00 | 0.00 | 53 | 993.6 |
| 20260507223040 | 64 | 270 | 1.0 | 4.0 | 0.00 | 0.00 | 0.00 | 53 | 993.6 |
| 20260507220042 | 64 | 248 | 1.0 | 3.0 | 0.00 | 0.00 | 0.00 | 53 | 993.7 |
| 20260507213042 | 63 | 113 | 1.0 | 2.0 | 0.00 | 0.00 | 0.00 | 57 | 993.8 |
| 20260507210042 | 64 | 68 | 2.0 | 9.0 | 0.00 | 0.00 | 0.00 | 53 | 994.0 |
| 20260507203041 | 65 | 225 | 1.0 | 2.0 | 0.00 | 0.00 | 0.00 | 51 | 993.5 |
| 20260507200201 | 69 | 225 | 1.0 | 4.0 | 0.00 | 0.00 | 0.00 | 46 | 993.6 |
| 20260507193044 | 71 | 225 | 1.0 | 5.0 | 0.00 | 0.00 | 0.00 | 42 | 993.5 |
| 20260507190141 | 74 | 180 | 3.0 | 10.0 | 0.00 | 0.00 | 0.00 | 38 | 993.3 |
| 20260507183041 | 77 | 270 | 2.0 | 10.0 | 0.00 | 0.00 | 0.00 | 30 | 993.1 |
| 20260507180436 | 74 | 293 | 2.0 | 14.0 | 0.00 | 0.00 | 0.00 | 36 | 993.3 |
| 20260507173041 | 73 | 0.0 | 2.0 | 0.00 | 0.00 | 0.00 | 49 | 993.2 | |
| 20260507170041 | 74 | 0.0 | 2.0 | 0.00 | 0.00 | 0.00 | 40 | 992.9 | |
| 20260507163041 | 77 | 0.0 | 3.0 | 0.00 | 0.00 | 0.00 | 39 | 992.8 | |
| 20260507160041 | 80 | 0.0 | 2.0 | 0.00 | 0.00 | 0.00 | 33 | 992.7 | |
| 20260507153040 | 82 | 338 | 1.0 | 4.0 | 0.00 | 0.00 | 0.00 | 29 | 992.7 |
| 20260507150040 | 81 | 90 | 2.0 | 7.0 | 0.00 | 0.00 | 0.00 | 28 | 992.7 |
| 20260507143041 | 81 | 338 | 5.0 | 14.0 | 0.00 | 0.00 | 0.00 | 29 | 992.8 |